Regional Weather Roundup
Issued by NWS

Home | Current Version | Previous Version | Graphics & Text | Print | Product List | Glossary On
Versions: 1 2 3 4 5 6 7 8 9 10 11 12 13 14 15 16 17 18 19 20 21 22 23 24 25 26 27 28 29 30 31 32 33 34 35 36 37 38 39 40 41 42 43 44 45 46 47 48 49 50
000
ASUS45 KBOI 280110
RWRID
WEATHER ROUNDUP FOR IDAHO
NATIONAL WEATHER SERVICE BOISE ID
600 PM MST TUE JAN 27 2015

NOTE: "FAIR" INDICATES FEW OR NO CLOUDS BELOW 12000 FEET
WITH NO SIGNIFICANT WEATHER AND/OR OBSTRUCTIONS TO VISIBILITY

IDZ012-014-280200-
SOUTHWEST IDAHO


CITY           SKY/WX    TMP DP  RH WIND       PRES   REMARKS
BOISE          CLOUDY    38  34  85 NW6       30.12R WCI  33
CALDWELL       CLOUDY    37  30  75 CALM      30.15S
MOUNTAIN HOME  LGT RAIN  35  35  99 W2        30.11R FOG
$$

IDZ016-017-280200-
SOUTHCENTRAL IDAHO


CITY           SKY/WX    TMP DP  RH WIND       PRES   REMARKS
BURLEY         CLOUDY    45  39  79 N5        30.08S
JEROME         CLOUDY    42  38  85 E6        30.11R
TWIN FALLS     LGT RAIN  45  41  86 W6        30.11R
$$

IDZ019>023-280200-
SOUTHEAST IDAHO


CITY           SKY/WX    TMP DP  RH WIND       PRES   REMARKS
IDAHO FALLS    LGT RAIN  37  35  92 W5        30.14S WCI  33
POCATELLO      MOCLDY    45  37  73 S9        30.12S
REXBURG        LGT RAIN  51  35  54 SW6       30.14S
$$

IDZ006-010-011-018-031-032-280200-
CENTRAL IDAHO MOUNTAINS


CITY           SKY/WX    TMP DP  RH WIND       PRES   REMARKS
MCCALL         CLOUDY    36  29  75 CALM      30.06R
HAILEY         CLOUDY    37  34  87 CALM      30.12S
STANLEY          N/A     39  31  72 SE10      30.09R WCI  32
SALMON         CLOUDY   N/A N/A N/A CALM      30.08R
CHALLIS        CLOUDY    35  30  82 CALM      30.06S
$$

IDZ002-004-006-007-026-280200-
NORTHERN IDAHO


CITY           SKY/WX    TMP DP  RH WIND       PRES   REMARKS
LEWISTON       CLOUDY    49  39  68 CALM      30.04R
LOWELL           N/A     40  37  89 N5        30.07R
COEUR D`ALENE  MOCLDY    36  32  87 N3        29.99R
MULLAN PASS    CLOUDY    36  26  67 VRB6      30.00S WCI  31
$$


USA.gov is the U.S. government's official web portal to all federal, state and local government web resources and services.